Simultaneous Nadir Overpasses (SNOs) Predictions

Prediction of SNOs between LANDSAT-8 and METOP-B Satellite Orbit:

Table of predicted SNOs for the next 14.0 days since TLE Epoch: 3/14/2014
Index Date (LANDSAT-8) Time (LANDSAT-8) Lat,Lon (LANDSAT-8) SZA (LANDSAT-8 ) Date (METOP-B) Time (METOP-B) Lat,Lon (METOP-B) SZA (METOP-B ) Distance(km) Time Diff (sec)
1 03/14/2014 19:47:26 -81.09, 102.03 94.88 03/14/2014 19:47:16 -81.09, 102.19 94.86 2.82 10
2 03/14/2014 20:36:51 81.12, -89.91 85.18 03/14/2014 20:37:55 81.12, -89.72 85.22 3.20 64
3 03/17/2014 14:32:13 81.07, 0.53 84.01 03/17/2014 14:31:00 81.07, 0.62 83.99 1.50 73
4 03/17/2014 15:21:39 -81.09, 168.51 95.96 03/17/2014 15:21:39 -81.09, 168.60 95.95 1.62 0
5 03/17/2014 16:10:47 81.46, -17.41 84.94 03/17/2014 16:12:01 81.28, -17.23 84.87 19.83 74
6
